DMSP 5D-3 F17 DEB

基本信息
目录编号:
29524
目录名称:
DMSP 5D-3 F17 DEB
国际标识:
2006-050C
轨道中心:
EARTH
物体状态:
在轨
发射日期:
2006-11-04 UTC
轨道信息
数据来源: 国际轨道数据
星历时间: 2026-09-13T20:06:11+0800
半长轴: 7167.361km
偏心率: 0.0004406
轨道倾角: 98.550°
近地点辐角: 234.899°
升交点赤经: 275.259°
平近点角: 289.605°
近地点: 786.066km
远地点: 792.382km
周期: 100.646分钟
每日圈数: 14.307505
详细信息
发射场:
AFWTR
轨道高度:
LEO
数据来源:
AOE Integration Group
参考系:
TEME
时间系统:
UTC
历元类型:
SGP4
2D轨道图
3D轨道图
轨道高度分析图
轨道倾角分析图
轨道综合分析图
查看轨道综合分析图